Weather History for Beaufort MCAS, SC

Change the Weather History Date:

Sunday, March 23, 2014

  Actual Average Record
Temperature  
Mean Temperature 68 °F -  
Max Temperature 79 °F 69 °F 86 °F (1935)
Min Temperature 55 °F 47 °F 29 °F (1963)
Cooling Degree Days 2    
Growing Degree Days 18 (Base 50)    
Moisture  
Dew Point 54 °F    
Average Humidity 75    
Maximum Humidity 97    
Minimum Humidity 33    
Precipitation  
Precipitation 0.00 in - - ()
Sea Level Pressure  
Sea Level Pressure 29.97 in    
Wind  
Wind Speed 4 mph (WNW)    
Max Wind Speed 17 mph    
Max Gust Speed 26 mph    
Visibility 4 miles    
Events Fog    
Averages and records for this station are not official NWS values.
T = Trace of Precipitation, MM = Missing Value Source: NWS Daily Summary

Daily Weather History Graph

Daily Weather History Graph

Search for Another Location

Airport:

Trip Planner

Search our weather history database for the weather conditions in past years. The results will help you decide how hot, cold, wet, or windy it might be!

Date:

Astronomy

Mar. 23, 2014 Rise Set
Actual Time 7:22 AM EDT 7:36 PM EDT
Civil Twilight 6:58 AM EDT 8:01 PM EDT
Nautical Twilight 6:29 AM EDT 8:29 PM EDT
Astronomical Twilight 6:00 AM EDT 8:58 PM EDT
Moon 1:36 AM EDT (3/23) 12:18 PM EDT (3/23)
Length of Visible Light 13h 02m
Length of Day
12h 13m
Waning Gibbous, 55% of the Moon is Illuminated
Mar 23
Waning Gibbous
Mar 23
Last Quarter
Mar 30
New
Apr 7
First Quarter
Apr 15
Full

Hourly Weather History & Observations

Time (EDT) Temp. Dew Point Humidity Pressure Visibility Wind Dir Wind Speed Gust Speed Precip Events Conditions
12:45 AM 60.1 °F 57.9 °F 93% 30.01 in 1.2 mi NNW 3.5 mph - N/A   Partly Cloudy
12:47 AM 59.0 °F 57.0 °F 93% 30.01 in 0.8 mi North 3.5 mph - N/A   Mist
12:52 AM 59.0 °F 57.2 °F 94% 30.01 in 0.2 mi Calm Calm - N/A Fog Fog
12:56 AM 59.0 °F 57.0 °F 93% 30.01 in 0.2 mi Calm Calm - N/A Fog Fog
1:21 AM 59.0 °F 57.9 °F 96% 30.00 in 0.2 mi Calm Calm - N/A Fog Fog
1:43 AM 57.9 °F 55.9 °F 93% 30.00 in 0.8 mi North 3.5 mph - N/A   Mist
1:50 AM 57.2 °F 55.4 °F 94% 30.00 in 0.2 mi Calm Calm - N/A Fog Fog
1:56 AM 57.0 °F 55.9 °F 96% 30.00 in 0.2 mi Calm Calm - N/A Fog Fog
2:25 AM 59.0 °F 57.9 °F 96% 29.99 in 0.8 mi Calm Calm - N/A   Overcast
2:31 AM 57.9 °F 55.9 °F 93% 29.99 in 0.5 mi Calm Calm - N/A Fog Fog
2:38 AM 57.0 °F 55.0 °F 93% 29.99 in 0.2 mi Calm Calm - N/A Fog Fog
2:56 AM 57.9 °F 55.9 °F 93% 29.99 in 0.2 mi Calm Calm - N/A Fog Fog
3:56 AM 61.0 °F 60.1 °F 97% 29.96 in 0.2 mi Calm Calm - N/A Fog Fog
4:56 AM 61.0 °F 60.1 °F 97% 29.95 in 0.2 mi Calm Calm - N/A Fog Fog
5:56 AM 61.0 °F 60.1 °F 97% 29.96 in 0.2 mi Calm Calm - N/A Fog Fog
6:56 AM 60.1 °F 59.0 °F 96% 29.96 in 0.2 mi WSW 3.5 mph - N/A Fog Fog
7:36 AM 60.1 °F 57.9 °F 93% 29.96 in 0.2 mi West 4.6 mph - N/A Fog Fog
7:53 AM 60.8 °F 57.2 °F 88% 29.96 in 0.2 mi WSW 3.5 mph - N/A Fog Fog
7:56 AM 60.1 °F 57.9 °F 93% 29.97 in 0.2 mi WSW 3.5 mph - N/A Fog Fog
8:32 AM 60.1 °F 59.0 °F 96% 29.98 in 0.2 mi WNW 3.5 mph - N/A Fog Fog
8:56 AM 60.1 °F 59.0 °F 96% 29.99 in 0.5 mi WNW 6.9 mph - N/A Fog Fog
9:00 AM 61.0 °F 59.0 °F 93% 29.98 in 1.0 mi West 5.8 mph - N/A   Mist
9:07 AM 61.0 °F 59.0 °F 93% 29.98 in 1.2 mi West 3.5 mph - N/A   Overcast
9:14 AM 61.0 °F 60.1 °F 97% 29.98 in 2.0 mi West 4.6 mph - N/A   Overcast
9:25 AM 61.0 °F 60.1 °F 97% 29.98 in 5.0 mi WNW 3.5 mph - N/A   Overcast
9:43 AM 62.1 °F 59.0 °F 90% 29.98 in 10.0 mi NW 5.8 mph - N/A   Scattered Clouds
9:56 AM 64.0 °F 60.1 °F 87% 29.99 in 10.0 mi NW 4.6 mph - N/A   Clear
10:56 AM 72.0 °F 55.9 °F 57% 29.98 in 10.0 mi NNW 6.9 mph - N/A   Clear
11:56 AM 73.9 °F 54.0 °F 50% 29.97 in 10.0 mi West 8.1 mph - N/A   Clear
12:56 PM 75.9 °F 53.1 °F 45% 29.96 in 10.0 mi WSW 8.1 mph - N/A   Clear
1:21 PM 77.0 °F 53.1 °F 43% 29.95 in 10.0 mi WNW 9.2 mph - N/A   Mostly Cloudy
1:56 PM 78.1 °F 50.0 °F 37% 29.94 in 10.0 mi West 13.8 mph - N/A   Overcast
2:56 PM 78.1 °F 46.9 °F 33% 29.91 in 10.0 mi WNW 13.8 mph - N/A   Overcast
3:56 PM 73.9 °F 48.0 °F 40% 29.89 in 7.0 mi WNW 11.5 mph - N/A   Overcast
4:03 PM 75.0 °F 48.9 °F 40% 29.89 in 10.0 mi WNW 12.7 mph 19.6 mph N/A   Mostly Cloudy
4:56 PM 75.9 °F 48.0 °F 37% 29.88 in 7.0 mi West 12.7 mph - N/A   Scattered Clouds
5:56 PM 75.0 °F 46.9 °F 37% 29.88 in 7.0 mi WNW 8.1 mph 17.3 mph N/A   Scattered Clouds
6:56 PM 73.9 °F 48.9 °F 41% 29.90 in 10.0 mi NW 10.4 mph - N/A   Clear
7:56 PM 72.0 °F 50.0 °F 46% 29.92 in 10.0 mi WNW 8.1 mph - N/A   Overcast
8:56 PM 71.1 °F 51.1 °F 49% 29.95 in 10.0 mi NW 9.2 mph - N/A   Overcast
9:22 PM 64.9 °F 45.0 °F 48% 29.98 in 9.0 mi NNE 17.3 mph 26.5 mph N/A   Overcast
9:56 PM 61.0 °F 42.1 °F 50% 30.02 in 10.0 mi NNE 17.3 mph 25.3 mph N/A   Mostly Cloudy
10:56 PM 57.9 °F 42.1 °F 56% 30.05 in 10.0 mi NNE 16.1 mph - N/A   Partly Cloudy
11:56 PM 55.0 °F 42.1 °F 62% 30.08 in 10.0 mi NNE 11.5 mph - N/A   Mostly Cloudy